Wind_Speed
39 44 47 53 56 58 62 64 66 67 71 66 67 67 64 48 31 23 22 22 23 20 24 29 33 36 40 35 31 30 28 30 46 53 55 64 82 95 96 88 80 85 71 72
40 45 49 53 55 58 63 64 65 65 67 67 63 66 60 46 32 26 22 22 25 25 26 29 31 34 37 38 38 35 30 29 36 52 56 59 73 92 100 99 87 82 80 73
41 44 49 52 54 58 63 66 67 68 66 66 64 63 59 43 34 27 26 27 28 30 32 31 31 30 32 33 30 30 34 31 31 49 56 58 66 84 99 101 98 92 87 81
41 44 47 50 54 58 63 67 66 67 66 65 64 63 61 48 34 29 28 31 34 34 34 35 35 32 31 30 30 34 34 34 33 32 59 59 60 78 96 105 103 102 91 77
39 42 47 50 55 60 62 66 67 67 67 64 63 62 63 56 37 28 27 30 32 35 36 34 32 30 27 30 32 36 39 37 37 38 42 65 60 68 90 106 106 108 110 80
39 43 47 50 55 59 63 66 68 68 67 64 62 62 63 61 53 28 25 30 34 36 36 34 34 35 35 34 30 33 36 42 41 42 44 51 70 64 84 101 108 107 102 106
41 44 48 49 55 58 64 65 68 69 66 65 62 63 65 63 56 39 25 29 33 38 39 38 37 35 35 36 38 35 38 39 44 42 47 50 56 73 78 96 109 109 105 100
42 45 48 50 54 59 64 68 69 68 68 66 62 63 66 65 59 47 30 32 36 40 42 43 42 41 38 38 42 43 42 43 46 45 49 51 55 67 74 96 107 112 115 107
45 45 48 49 54 59 64 66 66 66 65 66 63 64 64 67 63 56 40 36 39 44 46 46 38 40 41 46 48 47 45 40 52 55 51 54 54 55 75 90 103 113 118 118
42 44 49 50 54 58 62 66 67 69 66 67 68 66 67 71 69 62 57 42 42 44 47 45 48 49 50 56 59 60 53 49 49 61 63 60 58 60 66 86 102 113 118 121
45 42 48 51 54 57 61 65 66 69 67 66 69 66 68 71 72 68 64 50 43 50 52 51 55 58 63 68 68 65 56 52 41 49 73 68 68 60 65 82 99 113 118 119
43 44 47 49 54 56 60 64 66 69 72 65 67 65 69 72 74 72 68 58 49 56 54 59 64 65 64 64 54 47 43 46 45 45 59 72 68 70 71 77 96 110 118 122
45 44 46 50 53 55 59 62 65 68 72 67 67 63 67 70 74 72 71 64 55 56 56 62 63 67 64 51 51 46 47 49 52 54 55 65 71 71 73 78 91 107 116 126
45 46 44 47 49 53 60 63 64 67 72 70 66 67 62 66 70 72 73 65 59 58 59 62 64 67 64 55 51 43 39 37 42 50 58 62 70 72 75 81 87 104 117 124
46 47 46 45 49 50 57 62 64 66 72 70 71 69 69 72 75 77 78 70 62 62 64 61 70 68 63 57 62 38 30 28 34 39 43 55 71 72 78 83 85 101 117 125
46 49 50 45 46 49 52 58 62 64 70 72 71 71 71 71 75 79 80 76 69 65 68 65 69 69 70 63 64 33 24 25 22 27 42 51 69 70 78 82 83 97 117 125
45 48 50 49 47 47 50 55 59 63 67 72 72 70 73 71 74 79 79 77 74 70 73 73 71 67 67 65 62 33 22 22 20 22 43 55 62 65 74 79 83 95 114 118
44 48 49 52 48 49 51 53 56 61 65 69 71 69 71 74 73 79 82 81 77 73 75 76 74 70 72 74 64 42 25 17 18 20 49 56 59 60 69 79 81 90 106 114
42 48 49 52 50 49 50 53 55 59 61 64 68 69 69 73 69 74 79 83 76 75 75 78 75 76 77 74 66 39 25 13 9 13 41 58 57 62 61 70 74 85 99 107
41 45 46 51 52 49 51 52 55 58 60 62 65 69 69 71 69 69 72 79 78 73 73 76 74 76 78 72 64 40 22 7 7 14 39 56 55 60 55 61 68 83 96 105
42 39 45 49 48 48 49 51 55 58 62 62 65 69 68 72 73 72 74 78 83 78 71 75 72 74 74 70 62 43 19 4 13 15 36 54 51 52 54 57 64 83 96 108
41 39 44 47 47 50 48 50 53 55 59 60 64 66 66 70 71 69 73 77 80 78 66 69 68 65 67 65 54 42 18 11 14 19 36 46 47 45 46 62 65 85 93 107
43 38 42 43 44 47 46 46 50 52 55 57 59 62 65 67 68 65 67 75 79 78 65 64 68 59 59 61 47 36 19 7 5 17 34 43 41 37 55 59 69 83 91 103
45 42 40 46 41 48 44 46 48 50 52 55 55 59 62 63 65 63 65 70 76 75 68 54 63 63 53 59 51 31 24 16 2 15 32 40 37 37 52 61 73 80 87 96
47 48 45 47 45 48 44 46 47 47 51 53 54 55 59 60 62 61 62 67 72 71 67 52 56 60 59 53 50 45 20 12 10 15 29 36 43 39 54 62 70 76 83 88
49 53 48 49 47 44 44 46 46 47 48 51 53 54 56 56 58 58 59 64 69 68 65 53 46 54 57 43 45 43 34 20 6 8 18 34 41 46 59 65 68 76 78 79
Wind_Direction
343 345 344 347 349 350 349 349 349 344 344 348 353 354 356 347 337 329 322 321 320 301 279 274 275 279 285 290 292 284 281 253 231 231 231 222 218 212 208 203 204 205 211 218
345 347 348 348 349 350 351 349 349 347 345 349 355 357 356 349 336 335 324 321 317 312 305 302 301 299 302 300 294 280 272 268 244 233 233 229 216 214 209 206 204 201 210 206
348 349 349 348 350 353 353 351 349 348 347 351 357 360 0 347 335 335 335 328 320 317 317 317 310 302 297 295 295 288 277 256 260 236 232 231 221 214 210 207 204 202 203 201
350 350 348 349 351 353 357 354 349 348 347 353 358 1 3 1 334 329 329 325 324 322 318 315 308 298 286 282 282 282 276 271 257 254 230 229 228 215 212 209 205 205 203 201
348 350 350 350 351 354 357 355 351 347 348 355 356 360 3 2 352 326 322 323 322 320 317 314 296 290 285 281 278 273 268 266 263 253 243 227 227 221 212 211 205 206 206 202
347 352 353 352 351 352 353 357 351 350 350 355 357 1 1 1 1 339 320 318 320 320 319 316 308 293 285 283 272 272 267 264 259 255 246 237 226 225 214 213 209 206 205 206
350 353 353 351 350 352 353 354 353 352 351 355 360 1 360 1 1 350 325 319 319 321 323 321 317 305 295 281 280 270 261 255 255 251 248 239 232 223 218 212 210 206 203 200
355 351 352 350 349 351 352 353 353 350 350 354 1 359 357 360 0 354 332 326 326 323 327 326 320 311 302 290 283 275 269 257 253 245 242 239 234 226 219 212 212 208 204 199
352 351 350 350 350 350 352 351 352 349 348 352 359 355 355 358 1 359 343 328 326 327 328 325 316 306 301 300 294 285 275 267 246 243 236 236 228 227 217 214 212 207 204 205
351 350 349 349 349 349 351 350 351 350 350 351 357 352 354 356 0 359 353 331 327 329 327 321 314 306 301 296 292 287 278 259 269 239 234 228 229 223 218 213 211 207 206 206
347 351 347 347 348 349 350 349 350 349 350 348 352 353 352 354 358 358 352 342 331 331 330 325 321 317 314 309 303 297 284 261 261 247 231 228 227 224 217 211 210 208 206 206
345 349 346 345 346 348 350 350 349 350 348 349 350 356 352 353 356 356 353 349 338 335 332 333 332 328 328 324 319 309 290 270 259 243 229 225 228 222 215 209 209 208 204 204
343 345 346 343 345 346 348 351 348 349 348 349 348 355 351 350 353 355 352 351 343 338 339 339 338 337 335 329 326 306 287 269 253 242 227 222 225 220 212 207 207 207 204 204
339 341 347 340 340 343 345 350 348 347 347 348 348 348 352 352 352 354 352 351 345 342 342 339 340 339 339 336 340 324 298 280 260 247 235 224 221 214 206 205 203 204 203 204
337 339 341 342 340 342 341 347 348 347 345 348 347 348 350 352 351 353 353 353 345 345 344 340 341 342 343 342 344 320 300 284 268 245 228 218 210 209 201 202 200 202 202 203
334 334 336 344 340 343 340 345 346 346 344 347 346 347 346 353 350 352 352 354 349 344 347 345 344 345 344 346 345 326 299 301 279 246 217 203 205 203 198 199 199 199 200 204
329 328 331 339 340 342 340 345 344 345 343 345 345 346 345 353 350 351 353 355 352 348 347 353 349 349 347 345 350 340 311 302 277 254 212 199 201 195 196 197 198 197 201 203
325 324 326 333 337 341 338 342 344 346 343 344 343 345 344 349 352 351 351 354 354 350 347 353 356 355 351 347 351 349 326 305 288 244 206 196 193 193 194 194 197 195 200 202
321 320 322 327 335 336 337 341 342 344 346 342 343 343 344 346 352 351 352 354 355 350 349 354 357 356 355 353 353 350 332 311 276 225 197 191 187 184 186 190 194 191 195 198
314 316 320 321 329 336 335 338 340 342 343 342 343 343 343 344 349 351 354 354 356 352 349 356 358 359 357 357 357 356 337 315 158 174 181 185 185 188 190 191 192 188 191 194
316 313 315 317 326 329 333 336 337 339 340 340 342 342 343 344 348 352 355 356 354 356 350 357 358 2 4 1 1 2 356 13 143 162 173 180 184 187 192 192 189 185 185 190
317 311 310 315 325 325 331 333 333 335 337 338 340 341 342 341 346 352 355 356 355 356 355 351 2 2 6 3 8 12 30 46 147 152 169 176 184 192 196 184 187 182 183 188
316 310 306 308 320 320 324 328 330 333 335 337 339 339 340 339 344 350 354 356 356 355 358 351 0 0 7 7 8 20 23 44 85 161 171 171 180 187 178 181 183 180 180 186
313 307 303 304 315 317 320 324 328 330 333 334 336 339 338 339 343 347 353 356 357 355 358 356 354 3 358 12 10 11 27 16 266 172 174 183 182 184 181 178 181 178 177 183
313 309 302 306 312 312 315 321 323 325 332 331 333 336 337 338 340 345 350 357 357 355 356 359 354 1 6 10 13 14 19 31 37 168 174 178 181 182 181 178 179 174 174 179
310 308 307 309 308 309 311 316 318 321 327 328 329 333 335 336 337 344 346 355 356 355 355 360 355 357 4 9 20 17 23 40 68 138 166 186 189 182 175 176 173 166 165 173
Height
5806 5800 5791 5781 5772 5763 5752 5740 5728 5712 5698 5688 5671 5654 5639 5624 5614 5608 5604 5600 5597 5594 5591 5589 5587 5584 5580 5576 5573 5571 5569 5569 5571 5574 5579 5587 5600 5615 5631 5649 5663 5678 5692 5706
5802 5794 5785 5775 5766 5757 5746 5733 5724 5711 5694 5681 5667 5648 5632 5621 5612 5607 5603 5599 5594 5590 5588 5584 5581 5577 5572 5568 5565 5563 5562 5561 5562 5564 5568 5574 5585 5598 5615 5631 5648 5665 5682 5693
5797 5790 5780 5771 5763 5752 5741 5728 5715 5701 5689 5677 5663 5646 5629 5617 5609 5605 5600 5596 5590 5585 5581 5577 5572 5567 5563 5560 5557 5554 5552 5553 5553 5553 5557 5562 5570 5582 5598 5614 5633 5649 5665 5681
5793 5785 5777 5767 5756 5746 5735 5722 5709 5698 5684 5669 5656 5645 5630 5617 5607 5601 5596 5590 5585 5579 5574 5569 5564 5559 5555 5551 5547 5545 5543 5542 5543 5543 5545 5550 5557 5567 5580 5596 5617 5632 5646 5662
5790 5782 5771 5760 5750 5739 5729 5718 5703 5694 5679 5665 5653 5640 5625 5612 5602 5595 5590 5584 5578 5572 5565 5559 5552 5547 5543 5539 5537 5534 5531 5530 5530 5532 5532 5536 5545 5553 5563 5578 5598 5615 5634 5647
5784 5775 5765 5754 5743 5733 5724 5713 5701 5687 5674 5661 5646 5633 5621 5608 5598 5588 5582 5575 5570 5563 5556 5549 5543 5537 5533 5529 5524 5521 5518 5516 5516 5518 5521 5522 5529 5538 5548 5560 5580 5596 5616 5634
5777 5768 5759 5750 5740 5731 5716 5706 5697 5683 5667 5652 5639 5627 5612 5601 5591 5581 5573 5567 5560 5553 5545 5539 5533 5527 5521 5516 5511 5507 5504 5501 5500 5501 5505 5508 5512 5521 5533 5543 5562 5580 5600 5620
5772 5762 5754 5745 5735 5723 5710 5696 5681 5666 5654 5648 5637 5624 5612 5600 5588 5576 5566 5559 5551 5542 5537 5529 5521 5513 5507 5501 5495 5489 5487 5486 5483 5482 5485 5490 5497 5503 5515 5528 5543 5565 5583 5602
5767 5758 5750 5740 5730 5718 5704 5692 5681 5671 5658 5644 5635 5621 5610 5595 5583 5570 5559 5550 5541 5532 5525 5516 5509 5501 5492 5484 5476 5470 5466 5462 5462 5462 5464 5469 5477 5486 5497 5510 5525 5548 5566 5585
5764 5755 5745 5736 5726 5714 5701 5687 5674 5660 5645 5635 5629 5610 5597 5583 5573 5561 5550 5540 5532 5524 5514 5503 5492 5481 5472 5460 5451 5443 5439 5437 5435 5437 5441 5447 5455 5467 5477 5492 5508 5532 5551 5566
5758 5752 5742 5730 5721 5710 5698 5684 5670 5658 5646 5628 5617 5607 5593 5580 5569 5558 5545 5531 5522 5512 5500 5488 5476 5463 5450 5437 5422 5411 5407 5408 5407 5407 5413 5423 5433 5447 5458 5473 5491 5512 5535 5553
5755 5747 5737 5729 5717 5706 5695 5682 5669 5654 5641 5629 5615 5605 5587 5574 5562 5549 5537 5523 5512 5499 5487 5475 5460 5443 5426 5411 5397 5387 5382 5380 5379 5381 5387 5400 5409 5424 5440 5454 5472 5492 5518 5538
5750 5743 5735 5725 5715 5703 5692 5681 5666 5653 5641 5629 5614 5607 5587 5573 5560 5546 5531 5517 5504 5491 5476 5460 5442 5425 5407 5391 5379 5365 5357 5351 5350 5355 5363 5375 5387 5401 5419 5435 5452 5475 5502 5523
5744 5737 5731 5719 5709 5699 5687 5676 5663 5651 5636 5625 5614 5600 5594 5578 5561 5548 5531 5512 5493 5478 5463 5446 5428 5407 5389 5372 5356 5342 5331 5327 5326 5329 5336 5348 5362 5378 5398 5416 5435 5458 5486 5509
5740 5733 5727 5719 5708 5697 5684 5671 5660 5647 5633 5620 5606 5591 5577 5560 5545 5532 5517 5502 5486 5470 5454 5435 5416 5395 5373 5356 5340 5323 5316 5313 5310 5310 5315 5325 5340 5358 5379 5399 5418 5443 5470 5496
5736 5727 5720 5717 5706 5695 5682 5670 5657 5645 5629 5614 5599 5588 5569 5558 5541 5524 5509 5494 5476 5459 5447 5427 5404 5382 5363 5345 5327 5312 5304 5299 5296 5296 5302 5311 5324 5344 5365 5385 5404 5428 5456 5481
5730 5722 5714 5710 5700 5691 5681 5668 5655 5645 5628 5614 5598 5583 5566 5555 5536 5520 5507 5486 5469 5450 5433 5415 5392 5372 5354 5336 5316 5303 5296 5290 5287 5287 5291 5303 5318 5336 5355 5374 5393 5416 5447 5470
5724 5715 5707 5701 5694 5686 5675 5665 5653 5642 5628 5614 5599 5583 5564 5549 5533 5511 5493 5479 5459 5439 5424 5408 5385 5366 5346 5327 5308 5295 5287 5282 5278 5277 5283 5299 5316 5332 5349 5368 5387 5408 5434 5466
5717 5707 5699 5693 5687 5681 5671 5660 5649 5637 5630 5613 5598 5583 5567 5549 5536 5515 5495 5471 5450 5432 5415 5399 5377 5360 5340 5320 5304 5290 5283 5277 5273 5272 5280 5298 5317 5333 5349 5367 5385 5405 5429 5457
5711 5703 5695 5686 5678 5670 5662 5653 5643 5633 5623 5609 5595 5581 5564 5549 5537 5520 5503 5483 5461 5438 5416 5402 5381 5360 5340 5320 5301 5289 5281 5277 5275 5278 5285 5302 5320 5336 5351 5366 5382 5402 5427 5455
5703 5697 5687 5678 5672 5665 5656 5646 5637 5627 5617 5603 5589 5575 5559 5542 5526 5512 5498 5480 5457 5435 5418 5405 5382 5363 5344 5326 5308 5291 5284 5283 5283 5287 5294 5309 5325 5339 5352 5366 5380 5400 5422 5448
5696 5688 5680 5672 5666 5656 5650 5641 5633 5624 5611 5598 5586 5573 5559 5544 5530 5513 5498 5482 5465 5448 5429 5411 5391 5371 5350 5332 5316 5303 5297 5296 5296 5298 5305 5318 5330 5342 5351 5366 5381 5396 5417 5445
5689 5683 5675 5667 5662 5652 5646 5637 5628 5619 5608 5596 5585 5573 5560 5545 5532 5516 5502 5486 5467 5447 5428 5410 5396 5379 5359 5343 5329 5318 5314 5311 5310 5312 5318 5325 5335 5344 5354 5367 5382 5398 5417 5443
5683 5673 5668 5659 5657 5648 5640 5632 5623 5614 5604 5594 5583 5572 5559 5546 5533 5519 5505 5491 5472 5454 5437 5418 5405 5391 5371 5355 5342 5331 5323 5319 5317 5319 5326 5334 5341 5350 5359 5370 5385 5402 5422 5446
5675 5665 5658 5655 5650 5642 5634 5627 5619 5610 5601 5591 5580 5571 5559 5546 5533 5521 5507 5494 5477 5460 5442 5427 5413 5400 5383 5366 5351 5341 5333 5329 5327 5327 5332 5338 5345 5352 5361 5374 5393 5410 5430 5453
5664 5657 5649 5645 5640 5634 5629 5622 5613 5605 5597 5587 5577 5567 5556 5546 5534 5523 5509 5496 5483 5467 5450 5436 5424 5410 5397 5381 5367 5354 5344 5338 5337 5338 5338 5341 5348 5357 5367 5382 5397 5410 5432 5454